Regional Weather Roundup
Issued by NWS Newport/Morehead, NC

Current Version | Previous Version | Graphics & Text | Print | Product List | Glossary Off
Versions: 1 2 3 4 5 6 7 8 9 10 11 12 13 14 15 16 17 18 19 20 21 22 23 24 25 26 27 28 29 30 31 32 33 34 35 36 37 38 39 40 41 42 43 44 45 46 47 48 49 50

000
ASUS42 KMHX 241425
RWRMHX
WEATHER ROUNDUP FOR EASTERN NORTH CAROLINA
NATIONAL WEATHER SERVICE NEWPORT/MOREHEAD CITY NC
1000 AM EDT SUN MAY 24 2015

NOTE: "FAIR" INDICATES FEW OR NO CLOUDS BELOW 12,000 FEET
WITH NO SIGNIFICANT WEATHER AND/OR OBSTRUCTIONS TO VISIBILITY

NCZ015>017-031-032-045>047-102-103-241500-
NORTH COAST

CITY           SKY/WX    TMP DP  RH WIND       PRES   REMARKS
EDENTON        MOSUNNY   72  59  64 S3        30.44R
ELIZABETH CITY SUNNY     71  56  58 SE6       30.44R
KITTY HAWK     SUNNY     69  52  54 SE5       30.43R
MANTEO         SUNNY     70  51  51 E7        30.44S

$$

NCZ045>047-081-094-103-104-241500-
CENTRAL COAST

CITY           SKY/WX    TMP DP  RH WIND       PRES   REMARKS
FRISCO         SUNNY     75  57  53 SE6       30.43S
SWANQUARTER      N/A     75 N/A N/A S5        30.39S

$$

NCZ095-097-098-100-101-241500-
SOUTHERN COAST

CITY           SKY/WX    TMP DP  RH WIND       PRES   REMARKS
BEAUFORT       SUNNY     75  58  55 E3        30.42R
CEDAR ISLAND     N/A     75 N/A N/A NE5       30.47S
JACKSONVILLE   SUNNY     75  61  61 E5        30.41S
PINEY ISLAND   SUNNY    N/A N/A N/A NE7       30.42S
WILMINGTON     MOSUNNY   77  56  48 E10       30.40F


$$

NCZ011>013-027>030-043-044-078>080-089-090>093-098-241500-
COASTAL PLAIN

CITY           SKY/WX    TMP DP  RH WIND       PRES   REMARKS
AHOSKIE        SUNNY     71  59  66 S3        30.44S
CLINTON        SUNNY     74  63  68 CALM      30.43S
ELIZABETHTOWN  SUNNY     75  60  58 E3        30.41S
GOLDSBORO      SUNNY     75  61  61 MISG      30.40
GREENVILLE     SUNNY     73  61  64 CALM      30.43R
HAVELOCK       SUNNY     76  53  44 E5        30.43S
KENANSVILLE    SUNNY     74  61  63 CALM      30.43F
KINSTON        SUNNY     73  61  64 SE6       30.43S
NEW BERN       SUNNY     75  57  53 E5        30.43S
RICHLANDS      SUNNY     77  57  50 S3        30.42S
ROCKY MOUNT    SUNNY     73  60  63 VRB3      30.43S
WASHINGTON     SUNNY     74  58  58 SW5       30.43S
WHITEVILLE     SUNNY     75  56  51 E6        30.40F

$$

AMZ130-135-150-152-154-156-158-170-250-252-270-ANZ085-086-088-633-658-670-241500-
MARINE OBSERVATIONS

STATION/POSITION TIME  TEMP    WIND        PRES    WAVE   SWELL
                       AIR SEA DIR/SP/G            HT/PER HT/PER
                 (UTC) (F)     (DEG/KT/KT) (MB)    (FT/S) (FT/S)
CHESAPEAKE LIGHT 1400   62     160/  9/ 10 1031.5
64 E VA BEACH    1350   63 61  130/  2/  4 1030.8    2/ 9   2/ 9
DUCK             1400   65 63  120/  7/  7 1029.8
2 E DUCK         1311      63                N/A     2/ 6
OREGON INLET     1400   67 67   70/  8/ 10 1030.7
13E OREGON INLT  1400      64                N/A     2/ 6
HATTERAS CG      1400   72 72  100/  5/  8 1029.9
DIAMOND BUOY     1350   73 77   50/  4/  6 1030.2    2/ 8   2/ 8
CAPE LOOKOUT     1400   74      50/  6/  7 1029.7
BEAUFORT LAB     1400   75 74   50/  5/  8 1029.2
27 SE WRIGHTSVLE 1400   71 77  120/  8/ 10   N/A
5 SE WRIGHTSVLE  1308   75 76  120/  8/ 14 1029.6
225 S CAPE HAT   1350   72 74   80/ 19/ 23 1028.2    6/ 6
41 SE CHARLESTON 1350   75 75   80/ 14/ 17 1027.4    5/ 5   2/ 8

$$



USA.gov is the U.S. government's official web portal to all federal, state and local government web resources and services.